Regional Weather Roundup
Issued by NWS

Home | Current Version | Previous Version | Text Only | Print | Product List | Glossary On
Versions: 1 2 3 4 5 6 7 8 9 10 11 12 13 14 15 16 17 18 19 20 21 22 23 24 25 26 27 28 29 30 31 32 33 34 35 36 37 38 39 40 41 42 43 44 45 46 47 48 49 50
332
ASUS43 KDTX 241201
RWRMI
MICHIGAN HOURLY REGIONAL WEATHER ROUNDUP
NATIONAL WEATHER SERVICE DETROIT/PONTIAC MI
800 AM EDT TUE APR 24 2018

NOTE: "FAIR" INDICATES FEW OR NO CLOUDS BELOW 12,000 FEET WITH NO
SIGNIFICANT WEATHER AND/OR OBSTRUCTION TO VISIBILITY.

MIZ047>049-052>055-059>063-066>070-074>076-081>083-241300-
SOUTHEAST LOWER MICHIGAN

CITY           SKY/WX    TMP DP  RH WIND       PRES   REMARKS
ADRIAN         CLOUDY    52  47  83 E14       30.11R
6HR MIN TEMP:  52; 6HR MAX TEMP:  55;

ALMA           CLOUDY    53  49  84 CALM      30.12S
6HR MIN TEMP:  51; 6HR MAX TEMP:  55;

ANN ARBOR      CLOUDY    52  49  89 E9        30.13R
BAD AXE        CLOUDY    55  45  68 CALM      30.15R
6HR MIN TEMP:  48; 6HR MAX TEMP:  56;

CARO           CLOUDY    53  46  77 SE3       30.13S
DETROIT CITY   CLOUDY    53  44  71 E6        30.16R
6HR MIN TEMP:  52; 6HR MAX TEMP:  56;

DETROIT        LGT RAIN  53  46  77 E5        30.15R
6HR MIN TEMP:  52; 6HR MAX TEMP:  56; 6HR PCP:  0.01;

FLINT          CLOUDY    53  48  83 S5        30.13S
6HR MIN TEMP:  51; 6HR MAX TEMP:  56; 6HR PCP: TRACE;

GROSSE ILE     CLOUDY    52  46  80 E3        30.14R
6HR MIN TEMP:  49; 6HR MAX TEMP:  54;

HILLSDALE      CLOUDY    52  45  76 E9        30.08S
HOWELL         CLOUDY    53  49  86 E8        30.13S
6HR MIN TEMP:  51; 6HR MAX TEMP:  55;


CITY           SKY/WX    TMP DP  RH WIND       PRES   REMARKS
JACKSON        CLOUDY    53  47  79 E12       30.11R
6HR MIN TEMP:  52; 6HR MAX TEMP:  55; 6HR PCP: TRACE;

LAMBERTVILLE   CLOUDY    52  48  87 E9        30.11S
6HR MIN TEMP:  51; 6HR MAX TEMP:  58;

LANSING        CLOUDY    53  48  83 E8        30.12R
6HR MIN TEMP:  52; 6HR MAX TEMP:  55; 6HR PCP: TRACE;

LAPEER         CLOUDY    52  48  86 CALM      30.14F
6HR MIN TEMP:  50; 6HR MAX TEMP:  55;

MASON          CLOUDY    54  46  73 SE8       30.12R
6HR MIN TEMP:  53; 6HR MAX TEMP:  55;

MONROE         DRIZZLE   50  48  93 E6        30.13S
6HR MIN TEMP:  49; 6HR MAX TEMP:  54; 6HR PCP:  0.01;

PONTIAC        CLOUDY    54  47  77 SE7       30.13R
6HR MIN TEMP:  53; 6HR MAX TEMP:  56;

PORT HOPE        N/A     50  47  89 CALM      30.13R
6HR MIN TEMP:  47; 6HR MAX TEMP:  54;

PORT HURON     LGT RAIN  50  46  87 CALM      30.16S
TRI CITIES     CLOUDY    53  47  79 SE5       30.13R
6HR MIN TEMP:  46; 6HR MAX TEMP:  54;

MIDLAND        CLOUDY    48  43  83 CALM      30.12S
6HR MIN TEMP:  45; 6HR MAX TEMP:  48;

TROY           CLOUDY    56  43  62 SE5       30.17R
SAGINAW HB     CLOUDY    54  45  71 SE5       30.13S
$$
MIZ043>046-050>051-056>058-064>065-071>073-077>080-241300-
SOUTHWEST LOWER MICHIGAN

CITY           SKY/WX    TMP DP  RH WIND       PRES   REMARKS
BATTLE CREEK   CLOUDY    52  49  89 E3        30.09S
6HR MIN TEMP:  52; 6HR MAX TEMP:  54; 6HR PCP: TRACE;

BENTON HARBOR  CLOUDY    53  47  79 NE5       30.06S
6HR MIN TEMP:  52; 6HR MAX TEMP:  56; 6HR PCP: TRACE;

BIG RAPIDS     CLOUDY    47  40  76 NE7       30.10S
6HR MIN TEMP:  46; 6HR MAX TEMP:  51;

COLDWATER      CLOUDY    53  49  87 E5        30.08S
6HR MIN TEMP:  51; 6HR MAX TEMP:  53;

HOLLAND        CLOUDY    53  47  79 E7        30.09R
6HR MIN TEMP:  52; 6HR MAX TEMP:  57; 6HR PCP: TRACE;

GRAND RAPIDS   CLOUDY    53  48  83 E6        30.09S
6HR MIN TEMP:  52; 6HR MAX TEMP:  57; 6HR PCP: TRACE;

IONIA          CLOUDY    52  47  82 E5        30.09S
6HR MIN TEMP:  51; 6HR MAX TEMP:  55;

KALAMAZOO      CLOUDY    54  48  80 SE7       30.09R
6HR MIN TEMP:  53; 6HR MAX TEMP:  55; 6HR PCP: TRACE;

LUDINGTON      FAIR      46  40  80 CALM      30.10R
6HR MIN TEMP:  41; 6HR MAX TEMP:  46;

MARSHALL       CLOUDY    51  50  98 CALM      30.09S
6HR MIN TEMP:  50; 6HR MAX TEMP:  53;

MOUNT PLEASANT FAIR      51  46  85 CALM      30.11S
6HR MIN TEMP:  49; 6HR MAX TEMP:  52;

MUSKEGON       CLOUDY    55  47  74 SE6       30.09S
6HR MIN TEMP:  52; 6HR MAX TEMP:  55; 6HR PCP: TRACE;

SOUTH HAVEN    CLOUDY    53  47  79 E3        30.07R
$$
MIZ016>042-241300-
NORTHERN LOWER MICHIGAN

CITY           SKY/WX    TMP DP  RH WIND       PRES   REMARKS
ALPENA         FAIR      37  32  82 CALM      30.13R
6HR MIN TEMP:  33; 6HR MAX TEMP:  37;

BEAVER ISLAND  FAIR      32  30  91 CALM      30.11R
6HR MIN TEMP:  31; 6HR MAX TEMP:  36;

BELLAIRE       FAIR      37  32  81 CALM      30.12
6HR MIN TEMP:  32; 6HR MAX TEMP:  37;

CADILLAC       FAIR      45  38  75 CALM      30.11R
CHARLEVOIX     FAIR      39  30  69 E6        30.13R
6HR MIN TEMP:  36; 6HR MAX TEMP:  40;

FRANKFORT      FAIR      43  37  79 CALM      30.10S
GAYLORD        PTSUNNY   42  32  67 CALM      30.11R
6HR MIN TEMP:  37; 6HR MAX TEMP:  44;

HARBOR SPRINGS FAIR      39  30  68 CALM      30.11R
HOUGHTON LAKE  CLOUDY    45  39  79 CALM      30.13R
6HR MIN TEMP:  40; 6HR MAX TEMP:  45;

MANISTEE       FAIR      46  38  73 E5        30.10R
OSCODA         PTSUNNY   42  33  69 CALM      30.13S
6HR MIN TEMP:  34; 6HR MAX TEMP:  42;

PELLSTON       FAIR      37  30  75 CALM      30.11R
6HR MIN TEMP:  29; 6HR MAX TEMP:  37;

ROGERS CITY    FAIR      38  32  79 CALM      30.13R
TRAVERSE CITY  PTSUNNY   42  34  73 CALM      30.10R
6HR MIN TEMP:  37; 6HR MAX TEMP:  42;

$$
MIZ007>008-015-241300-
EASTERN UPPER MICHIGAN

CITY           SKY/WX    TMP DP  RH WIND       PRES   REMARKS
KINROSS        FAIR      36  23  59 NE5       30.12S WCI  32
6HR MIN TEMP:  32; 6HR MAX TEMP:  39;

MACKINAC ISLAN FAIR      39  30  70 SE7       30.11R WCI  34
6HR MIN TEMP:  35; 6HR MAX TEMP:  47;

NEWBERRY       FAIR      35  25  68 CALM      30.11R
6HR MIN TEMP:  32; 6HR MAX TEMP:  41;

S. S. MARIE    FAIR      41  26  55 NE3       30.12R
6HR MIN TEMP:  38; 6HR MAX TEMP:  43;

MUNISING         N/A     36  28  73 S7        30.10R WCI  30
6HR MIN TEMP:  33; 6HR MAX TEMP:  44;

$$
MIZ004>006-011>014-085-241300-
CENTRAL UPPER MICHIGAN

CITY           SKY/WX    TMP DP  RH WIND       PRES   REMARKS
MANISTIQUE     FAIR      37  32  81 CALM      30.10R
6HR MIN TEMP:  29; 6HR MAX TEMP:  37;

ESCANABA       FAIR      32  29  88 CALM      30.11R
6HR MIN TEMP:  26; 6HR MAX TEMP:  32;

MENOMINEE      FAIR      31  28  89 CALM      30.11S
6HR MIN TEMP:  29; 6HR MAX TEMP:  36;

SAWYER-GWINN   SUNNY     36  27  69 N5        30.11R WCI  32
$$
MIZ001>003-009>011-084-241300-
WESTERN UPPER MICHIGAN

CITY           SKY/WX    TMP DP  RH WIND       PRES   REMARKS
IRON MOUNTAIN  FAIR      36  28  73 CALM      30.09R
6HR MIN TEMP:  30; 6HR MAX TEMP:  38;

HOUGHTON       FAIR      43  28  55 NE10      30.13R
6HR MIN TEMP:  38; 6HR MAX TEMP:  51;

COPPER HARBOR    N/A     40  30  67 N6        30.14R
6HR MIN TEMP:  37; 6HR MAX TEMP:  46;

IRONWOOD       FAIR      32  28  85 E3        30.16R
6HR MIN TEMP:  30; 6HR MAX TEMP:  36;

$$

ABBREVIATIONS USED IN REMARKS
   TC - TEMPERATURE IN CELSIUS
  WCI - WIND CHILL INDEX
   HX - HEAT INDEX
  VSB - VISIBILITY





USA.gov is the U.S. government's official web portal to all federal, state and local government web resources and services.